Location: Dunedin
(45.8670°S, 170.5000°E)
Time: 00:43:39
(UTC+12:00)

CZ-2C R/B - Pass Details

Date: 24 January 2019
Orbit: 784 x 871 km, 98.3° (Epoch: 21 April)

Event Time Altitude Azimuth Distance (km) Brightness Sun altitude
Exits shadow 21:48:34 - 34° (NE) 3,030 5.0 -5.1°
Reaches altitude 10° 21:50:03 10° 37° (NE) 2,461 4.5 -5.3°
Maximum altitude 21:55:17 49° 111° (ESE) 1,069 3.1 -6.0°
Drops below altitude 10° 22:00:28 10° 184° (S) 2,434 5.7 -6.8°
Sets 22:02:51 0° 188° (S) 3,360 6.6 -7.1°
